EW4389 Weather Reports


time (UTC)temp
F
wind
direction
speed
knots
gust
knots
rain 1hr
in
rain 24hr
in
rain mn
in
humidity
%
barometer
mb
20260902194555 81 309 2.6 7.8 0.00 1.15 1.15 46 1009.9
20260902193055 80 300 4.3 11.3 0.00 1.15 1.15 48 1010.2
20260902191555 80 287 4.3 11.3 0.00 1.15 1.15 43 1010.3
20260902190053 79 311 3.5 11.3 0.00 1.15 1.15 43 1010.4
20260902184553 79 269 1.7 8.7 0.00 1.15 1.15 41 1010.2
20260902183102 79 237 0.0 7.8 0.00 1.15 1.15 45 1009.7
20260902181554 80 238 1.7 8.7 0.00 1.15 1.15 46 1010.1
20260902180050 80 298 2.6 7.8 0.00 1.15 1.15 48 1010.7
20260902174553 80 312 2.6 9.6 0.00 1.15 1.15 49 1011.2
20260902173109 81 273 5.2 10.4 0.00 1.15 1.15 49 1011.2
20260902171546 81 277 2.6 7.8 0.00 1.15 1.15 39 1010.9
20260902170042 80 253 1.7 8.7 0.00 1.15 1.15 33 1010.8
20260902164540 79 279 1.7 10.4 0.00 1.15 1.15 31 1011.0
20260902163038 78 267 2.6 11.3 0.00 1.15 1.15 36 1011.0
20260902161534 77 265 4.3 11.3 0.00 1.15 1.15 33 1011.1
20260902160048 77 251 4.3 10.4 0.00 1.15 1.15 30 1011.3
20260902154540 75 301 5.2 12.2 0.00 1.15 1.15 30 1011.3
20260902153036 74 282 3.5 11.3 0.00 1.15 1.15 31 1011.2
20260902151520 73 270 3.5 9.6 0.00 1.15 1.15 32 1011.2
20260902150017 72 285 3.5 11.3 0.00 1.15 1.15 32 1011.4
20260902144516 71 289 2.6 7.0 0.01 1.15 1.15 32 1011.1
20260902143015 69 298 3.5 8.7 0.03 1.15 1.15 32 1011.6
20260902141512 68 304 0.0 0.9 0.10 1.15 1.15 33 1011.9
20260902140012 68 304 0.0 7.0 0.85 1.15 1.15 33 1011.5
20260902134511 68 327 0.0 7.8 1.14 1.14 1.14 32 1011.9
20260902133008 68 330 7.0 16.5 1.12 1.12 1.12 32 1012.9
20260902131505 69 354 7.8 15.6 1.05 1.05 1.05 32 1013.7
20260902130001 72 263 10.4 27.8 0.17 0.17 0.17 31 1013.0
20260902124609 72 257 4.3 9.6 0.00 0.00 0.00 31 1011.1
20260902123143 72 249 3.5 7.8 0.00 0.00 0.00 32 1011.2
20260902121556 72 274 1.7 10.4 0.00 0.00 0.00 32 1011.5
20260902120055 72 236 4.3 10.4 0.00 0.00 0.00 32 1010.1
20260902114553 72 241 6.1 13.9 0.00 0.00 0.00 32 1010.7
20260902113051 72 244 4.3 11.3 0.00 0.00 0.00 32 1010.2
20260902111552 71 221 0.9 6.1 0.00 0.00 0.00 32 1010.0
20260902110057 71 214 3.5 8.7 0.00 0.00 0.00 32 1010.2
20260902104550 71 247 2.6 10.4 0.00 0.00 0.00 32 1010.1
20260902103047 71 238 0.0 8.7 0.00 0.00 0.00 32 1010.2
20260902101553 71 239 0.9 3.5 0.00 0.00 0.00 32 1010.0
20260902100043 71 238 0.0 0.9 0.00 0.00 0.00 32 1010.4
20260902094545 72 238 0.0 1.7 0.00 0.03 0.00 32 1010.6
20260902093040 72 238 0.0 6.1 0.00 0.03 0.00 32 1010.8
20260902091558 72 238 0.9 5.2 0.00 0.03 0.00 32 1010.8
20260902090042 72 238 2.6 6.1 0.00 0.03 0.00 32 1010.8
20260902084548 72 240 2.6 7.0 0.00 0.03 0.00 32 1010.9
20260902083041 72 238 0.0 2.6 0.00 0.03 0.00 32 1011.3
20260902081537 72 238 0.0 3.5 0.00 0.03 0.00 32 1011.3
20260902080034 72 240 2.6 7.8 0.00 0.03 0.00 32 1011.4
20260902074534 72 230 1.7 7.0 0.00 0.03 0.00 32 1011.2
20260902073037 71 286 0.9 2.6 0.00 0.03 0.00 32 1011.4
20260902071535 72 286 0.0 1.7 0.00 0.03 0.00 32 1011.5
20260902070039 72 286 0.0 3.5 0.00 0.03 0.00 32 1011.3
20260902064538 71 286 0.0 3.5 0.00 0.03 0.00 32 1011.4
20260902063029 71 286 0.9 4.3 0.00 0.03 0.00 32 1011.5
20260902061528 71 286 0.0 4.3 0.00 0.03 0.00 32 1011.7
20260902060027 71 330 0.0 3.5 0.00 0.03 0.00 32 1011.8
20260902054526 71 329 0.0 0.9 0.00 0.05 0.00 32 1011.9
20260902053025 71 330 0.0 1.7 0.00 0.05 0.00 32 1011.7
20260902051522 71 329 0.0 2.6 0.00 0.05 0.00 32 1011.7
20260902050022 71 329 0.0 2.6 0.00 0.05 0.00 32 1011.5
20260902044521 71 330 0.0 0.0 0.00 0.06 0.00 33 1011.4
20260902043020 71 330 0.0 0.0 0.00 0.06 0.00 33 1011.5
20260902041537 71 330 0.0 1.7 0.00 0.06 0.00 33 1011.3
20260902040016 71 334 0.0 0.9 0.00 0.06 0.00 33 1011.4
20260902034516 72 334 0.0 0.0 0.00 0.06 0.06 33 1011.2
20260902033014 72 330 0.0 0.9 0.00 0.06 0.06 33 1011.2
20260902031509 73 330 0.0 0.9 0.00 0.06 0.06 33 1011.2
20260902030006 73 330 0.0 0.9 0.00 0.06 0.06 33 1011.3
20260902024501 73 330 0.0 1.7 0.00 0.06 0.06 33 1011.4
20260902023057 73 334 0.0 1.7 0.00 0.06 0.06 33 1011.4
20260902021557 73 330 0.0 0.9 0.00 0.06 0.06 33 1011.6
20260902020054 74 330 0.0 0.0 0.00 0.06 0.06 33 1011.7
20260902014544 74 334 0.0 0.9 0.00 0.06 0.06 33 1011.5
20260902013039 74 334 0.0 0.0 0.00 0.06 0.06 33 1011.5
20260902011533 74 330 0.0 0.0 0.00 0.06 0.06 34 1011.3
20260902010034 74 334 0.0 0.0 0.00 0.06 0.06 35 1011.2
20260902004525 75 334 0.0 0.0 0.00 0.06 0.06 36 1011.0
20260902003021 75 334 0.0 0.0 0.00 0.06 0.06 38 1010.7
20260902001519 76 334 0.0 0.0 0.00 0.06 0.06 39 1010.4
20260902000023 77 334 0.0 0.0 0.00 0.06 0.06 40 1010.3
20260901234507 77 330 0.0 0.0 0.00 0.06 0.06 40 1010.2
20260901233002 78 330 0.0 0.9 0.00 0.06 0.06 41 1010.4
20260901231558 79 330 0.0 1.7 0.00 0.06 0.06 41 1010.6
20260901230058 79 330 0.9 2.6 0.00 0.06 0.06 43 1010.5
20260901224553 80 330 0.9 2.6 0.00 0.06 0.06 42 1010.6
20260901223107 80 330 0.0 4.3 0.00 0.06 0.06 44 1010.6
20260901221552 80 334 1.7 7.0 0.00 0.06 0.06 45 1010.6
20260901220051 80 330 2.6 7.0 0.00 0.06 0.06 43 1010.6
20260901214546 80 317 3.5 7.8 0.00 0.06 0.06 43 1010.3
20260901213038 80 349 2.6 7.8 0.00 0.06 0.06 43 1010.2
20260901211533 80 339 1.7 5.2 0.00 0.06 0.06 40 1010.2
20260901210037 80 353 1.7 5.2 0.00 0.06 0.06 45 1010.3
20260901204533 80 354 1.7 5.2 0.00 0.07 0.06 46 1010.3
20260901203043 81 348 2.6 7.8 0.00 0.07 0.06 47 1010.3
20260901201524 81 315 6.1 8.7 0.00 0.07 0.06 51 1010.2
20260901200020 81 356 4.3 11.3 0.00 0.07 0.06 52 1010.2